"Time","Temp","Dewpoint","Humidity","Pressure","Direction","Speed","Gust","Precip","PrecipRate"
"00:04:59","31.2","29.9","95","30.27","188","0","0","0.00","0.00"
"00:09:58","31.2","29.9","95","30.27","188","0","0","0.00","0.00"
"00:14:56","31.1","29.8","95","30.27","188","0","0","0.00","0.00"
"00:19:58","31","29.7","95","30.27","188","0","0","0.00","0.00"
"00:24:57","30.9","29.6","95","30.27","188","0","0","0.00","0.00"
"00:29:59","30.8","29.5","95","30.27","188","0","0","0.00","0.00"
"00:34:58","30.8","29.5","95","30.27","188","0","0","0.00","0.00"
"00:39:57","30.8","29.5","95","30.27","188","0","0","0.00","0.00"
"00:44:56","30.8","29.5","95","30.27","188","0","0","0.00","0.00"
"00:49:58","30.8","29.5","95","30.27","188","0","0","0.00","0.00"
"00:54:57","30.9","29.6","95","30.27","188","0","0","0.00","0.00"
"00:59:59","31","29.7","95","30.27","188","0","0","0.00","0.00"
"01:01:36","31","29.7","95","30.27","188","0","0","0.00","0.00"
"01:09:58","31","29.7","95","30.27","188","0","0","0.00","0.00"
"01:14:58","30.9","29.6","95","30.27","188","0","0","0.00","0.00"
"01:19:56","30.9","29.6","95","30.27","188","0","0","0.00","0.00"
"01:24:59","30.9","29.6","95","30.27","188","0","0","0.00","0.00"
"01:29:57","30.9","29.6","95","30.27","188","0","0","0.00","0.00"
"01:34:59","30.8","29.5","95","30.27","188","0","0","0.00","0.00"
"01:39:59","30.8","29.5","95","30.27","188","0","0","0.00","0.00"
"01:44:57","30.8","29.5","95","30.27","188","0","0","0.00","0.00"
"01:49:56","30.8","29.5","95","30.27","188","0","0","0.00","0.00"
"01:54:59","30.8","29.5","95","30.27","188","0","0","0.00","0.00"
"01:59:57","30.8","29.5","95","30.28","188","0.4","2.4","0.00","0.00"
"02:04:57","30.8","29.5","95","30.28","188","0","0","0.00","0.00"
"02:09:57","30.8","29.5","95","30.28","188","0.8","2.4","0.00","0.00"
"02:14:56","30.7","29.4","95","30.29","189","0.1","2.3","0.00","0.00"
"02:19:59","30.7","29.5","95.2","30.29","189","0","0","0.00","0.00"
"02:24:57","30.6","29.3","95","30.29","189","0.1","1.2","0.00","0.00"
"02:29:56","30.6","29.3","95","30.29","189","0.1","1.2","0.00","0.00"
"02:34:59","30.6","29.3","95","30.29","189","0","0","0.00","0.00"
"02:39:59","30.6","29.3","95","30.29","189","0","0","0.00","0.00"
"02:44:57","30.6","29.3","95","30.29","189","0","0","0.00","0.00"
"02:49:56","30.6","29.3","95","30.29","189","0","0","0.00","0.00"
"02:54:58","30.6","29.3","95","30.29","189","0","0","0.00","0.00"
"02:59:57","30.6","29.3","95","30.29","189","0","0","0.00","0.00"
"03:04:58","30.6","29.3","95","30.29","189","0","0","0.00","0.00"
"03:09:58","30.6","29.3","95","30.29","189","0","0","0.00","0.00"
"03:14:58","30.6","29.4","95.3","30.29","189","0","0","0.00","0.00"
"03:19:56","30.8","29.8","96","30.29","189","0","0","0.00","0.00"
"03:24:59","31","30","96","30.29","189","0","0","0.00","0.00"
"03:29:57","31.1","30.1","96","30.30","189","0","0","0.00","0.00"
"03:34:59","31","30","96","30.30","189","0","0","0.00","0.00"
"03:39:57","31","30","96","30.30","189","0","0","0.00","0.00"
"03:44:59","30.9","29.9","96","30.30","189","0","0","0.00","0.00"
"03:49:55","31.1","30.1","96","30.30","189","0.7","2.4","0.00","0.00"
"03:54:56","31.2","30.2","96","30.30","189","0.4","2.3","0.00","0.00"
"03:59:56","31.2","30.2","96","30.31","189","0","0","0.00","0.00"
"04:04:59","31.1","30.1","96","30.31","189","0","0","0.00","0.00"
"04:09:58","31","30","96","30.31","189","0","0","0.00","0.00"
"04:14:58","30.9","29.9","96","30.31","189","0","0","0.00","0.00"
"04:19:56","30.8","29.8","96","30.30","189","0","0","0.00","0.00"
"04:24:58","30.8","29.8","96","30.30","189","0","0","0.00","0.00"
"04:29:56","30.7","29.7","96","30.31","189","0","0","0.00","0.00"
"04:34:58","30.7","29.7","96","30.31","189","0","0","0.00","0.00"
"04:39:58","30.8","29.8","96","30.31","189","0","0","0.00","0.00"
"04:44:56","30.7","29.7","96","30.32","189","0","0","0.00","0.00"
"04:49:59","30.7","29.7","96","30.32","189","0.1","1.2","0.00","0.00"
"04:54:57","30.7","29.7","96","30.32","189","0.2","1.2","0.00","0.00"
"04:59:56","30.7","29.7","96","30.32","198","0.4","2.4","0.00","0.00"
"05:04:59","30.9","29.9","96","30.32","198","0","1.2","0.00","0.00"
"05:09:59","31","30","96","30.32","198","0","0","0.00","0.00"
"05:14:58","31","30","96","30.32","198","0","0","0.00","0.00"
"05:19:57","30.9","29.9","96","30.32","198","0","0","0.00","0.00"
"05:24:59","30.8","29.8","96","30.32","198","0","0","0.00","0.00"
"05:29:57","30.8","29.8","96","30.32","198","0","0","0.00","0.00"
"05:34:59","30.8","29.8","96","30.32","198","0","0","0.00","0.00"
"05:39:59","30.7","29.7","96","30.32","198","0","0","0.00","0.00"
"05:44:57","30.6","29.6","96","30.32","198","0","0","0.00","0.00"
"05:49:56","30.5","29.5","96","30.32","198","0","0","0.00","0.00"
"05:54:58","30.5","29.5","96","30.32","198","0","0","0.00","0.00"
"05:59:56","30.4","29.4","96","30.33","198","0","0","0.00","0.00"
"06:04:56","30.4","29.4","96","30.33","198","0","0","0.00","0.00"
"06:09:57","30.4","29.4","96","30.33","198","0","0","0.00","0.00"
"06:14:56","30.4","29.4","96","30.34","198","0","0","0.00","0.00"
"06:19:58","30.4","29.4","96","30.34","198","0","0","0.00","0.00"
"06:24:56","30.4","29.4","96","30.34","198","0","0","0.00","0.00"
"06:29:59","30.5","29.5","96","30.34","198","0","0","0.00","0.00"
"06:34:57","30.6","29.6","96","30.34","198","0","0","0.00","0.00"
"06:39:57","30.6","29.6","96","30.34","198","0","0","0.00","0.00"
"06:44:59","30.5","29.5","96","30.35","198","0","0","0.00","0.00"
"06:49:58","30.6","29.6","96","30.35","198","0","0","0.00","0.00"
"06:54:57","30.6","29.6","96","30.35","198","0","0","0.00","0.00"
"06:59:56","30.7","29.7","96","30.35","198","0","0","0.00","0.00"
"07:04:59","30.7","29.7","96","30.35","198","0","0","0.00","0.00"
"07:09:59","30.6","29.6","96","30.35","189","0","0","0.01","0.01"
"07:14:59","30.6","29.6","96","30.35","189","0","0","0.01","0.01"
"07:19:58","30.8","29.8","96","30.35","189","0","0","0.01","0.01"
"07:24:56","31.1","30.1","96","30.35","189","0","0","0.01","0.01"
"07:29:59","31.2","30.2","96","30.36","189","0","0","0.01","0.01"
"07:34:57","31.3","30.3","96","30.36","189","0","0","0.01","0.01"
"07:39:57","31.6","30.6","96","30.36","189","0","0","0.01","0.01"
"07:44:58","31.8","30.8","96","30.37","189","0","0","0.01","0.01"
"07:49:56","32","31","96","30.37","189","0","0","0.01","0.01"
"07:54:56","32.2","31.2","96","30.37","189","0","0","0.01","0.01"
"07:59:57","32.4","31.4","96","30.37","189","0","0","0.01","0.01"
"08:04:58","32.6","31.6","96","30.37","189","0","0","0.01","0.01"
"08:09:58","32.9","31.9","96","30.37","189","0","0","0.01","0.01"
"08:14:59","33.1","32.1","96","30.39","189","0","0","0.01","0.00"
"08:19:58","33.3","32.3","96","30.39","189","0","0","0.01","0.00"
"08:24:58","33.6","32.6","96","30.39","189","0","0","0.01","0.00"
"08:29:59","33.9","32.9","96","30.39","189","0","0","0.01","0.00"
"08:34:59","34.3","33.3","96","30.39","189","0","0","0.01","0.00"
"08:39:56","34.6","33.6","96","30.39","189","0","0","0.01","0.00"
"08:44:56","34.9","33.9","96","30.39","189","0","0","0.01","0.00"
"08:49:57","35.3","34.4","96.7","30.39","189","0","0","0.01","0.00"
"08:54:57","35.5","34.7","97","30.39","189","0","0","0.01","0.00"
"08:59:58","35.7","34.8","96.6","30.39","189","0","0","0.01","0.00"
"09:04:58","35.9","35","96.6","30.39","189","0","0","0.01","0.00"
"09:09:58","36","35.2","97","30.39","189","0","0","0.01","0.00"
"09:14:56","36.3","35.5","97","30.39","189","0","0","0.01","0.00"
"09:19:57","37.2","36.4","97","30.39","189","0","0","0.01","0.00"
"09:24:57","38.5","37.7","97","30.39","189","0","0","0.01","0.00"
"09:29:57","39.9","39.1","97","30.39","189","0","0","0.01","0.00"
"09:34:57","41.6","40.8","97","30.39","189","0","0","0.01","0.00"
"09:39:59","43.8","42.8","96.5","30.39","198","0.4","2.4","0.01","0.00"
"09:44:59","45.3","43.7","93.9","30.39","261","1.1","3.6","0.01","0.00"
"09:49:59","47","44.5","91.2","30.39","273","0.6","2.4","0.01","0.00"
"09:54:59","48.2","44.4","86.6","30.39","322","2.2","6","0.01","0.00"
"09:59:59","49.4","44.8","84.1","30.39","315","1.7","4.8","0.01","0.00"
"10:04:56","50.5","45.1","81.5","30.39","322","2.1","6","0.01","0.00"
"10:09:59","50.7","44.1","77.8","30.39","311","2.3","7.2","0.01","0.00"
"10:14:57","51","43.9","76.7","30.39","294","2","6","0.01","0.00"
"10:19:57","51","43.4","75.3","30.39","312","2.6","10.8","0.01","0.00"
"10:24:57","51.2","43.4","74.7","30.39","305","2.4","6","0.01","0.00"
"10:29:57","52.2","44.5","75","30.39","337","1.6","6","0.01","0.00"
"10:34:57","52.1","43.7","72.9","30.38","311","2.9","8.4","0.01","0.00"
"10:39:58","52.1","43","71.2","30.38","292","3.8","9.6","0.01","0.00"
"10:44:59","52.7","43.1","69.7","30.38","279","3.9","10.8","0.01","0.00"
"10:49:59","53.6","43.9","69.7","30.38","254","3.2","7.2","0.01","0.00"
"10:54:59","54.7","44.6","69","30.38","324","3","7.2","0.01","0.00"
"10:59:56","54.8","43.9","66.5","30.38","335","2.9","7.2","0.01","0.00"
"11:04:57","54.8","43.5","65.9","30.38","293","3.5","8.4","0.01","0.00"
"11:09:56","55.3","44","65.8","30.38","296","3.2","7.2","0.01","0.00"
"11:14:58","54.9","43","64.2","30.38","339","4.2","8.4","0.01","0.00"
"11:19:59","55.1","43.9","65.7","30.38","331","2.2","8.4","0.01","0.00"
"11:24:59","54.9","43","64.2","30.38","305","3.8","9.6","0.01","0.00"
"11:29:56","54.9","43.3","64.8","30.38","336","4.2","8.4","0.01","0.00"
"11:34:56","55.3","43.6","64.8","30.38","298","2.7","6","0.01","0.00"
"11:39:59","55.8","44.1","64.7","30.38","323","3.4","8.4","0.01","0.00"
"11:44:59","56.6","44.8","64.5","30.38","346","2.4","6","0.01","0.00"
"11:49:56","56.4","43.2","61.2","30.37","316","3.4","8.4","0.01","0.00"
"11:54:56","56.6","42.6","59.4","30.37","280","3.4","7.2","0.01","0.00"
"11:59:57","56","41","57.1","30.37","307","4.7","8.4","0.01","0.00"
"12:04:58","56.1","42.2","59.6","30.37","250","3.1","6.9","0.01","0.00"
"12:09:57","57","42.2","57.5","30.37","268","2.5","4.8","0.01","0.00"
"12:14:59","57.3","42.3","57.1","30.37","271","2.9","7.2","0.01","0.00"
"12:19:56","57.5","40.8","53.6","30.36","305","3.2","8.4","0.01","0.00"
"12:24:56","57.5","40.8","53.6","30.36","300","3","6","0.01","0.00"
"12:29:56","57.5","41.6","55.3","30.36","268","3","7.2","0.01","0.00"
"12:34:56","57.8","41.4","54.3","30.35","237","4.1","7.2","0.01","0.00"
"12:39:58","57.9","40.7","52.6","30.35","310","3","10.8","0.01","0.00"
"12:44:59","58","40.7","52.4","30.35","11","2.2","4.8","0.01","0.00"
"12:49:59","58","40","51.1","30.34","280","1.8","3.6","0.01","0.00"
"12:54:56","58.5","39.8","49.9","30.34","256","3.3","6","0.01","0.00"
"12:59:56","58.3","38.8","48.3","30.34","269","2.3","4.8","0.01","0.00"
"13:04:57","58","39.4","49.8","30.34","257","3.2","7.2","0.01","0.00"
"13:09:56","58.5","39.6","49.3","30.34","214","2.9","6","0.01","0.00"
"13:14:58","58.8","39","47.8","30.34","266","4","8.4","0.01","0.00"
"13:19:59","58.6","37.9","46.2","30.34","220","3.7","6","0.01","0.00"
"13:24:56","58.5","39.1","48.4","30.34","294","2.6","7.2","0.01","0.00"
"13:29:57","58.7","38.8","47.5","30.34","272","2.9","7.2","0.01","0.00"
"13:34:57","58.7","38","46.1","30.34","271","2.7","8.4","0.01","0.00"
"13:39:59","59","38.7","47","30.34","252","3.7","7.2","0.01","0.00"
"13:44:59","58.9","38","45.7","30.34","278","3","6","0.01","0.00"
"13:49:56","58.2","36.9","45","30.34","293","1.9","4.8","0.01","0.00"
"13:54:56","58.8","36.6","43.5","30.34","254","3.9","8.4","0.01","0.00"
"13:59:57","59.3","38.1","45.2","30.34","258","2.8","7.2","0.01","0.00"
"14:04:57","59.6","37.8","44.3","30.34","312","2.6","6","0.01","0.00"
"14:09:57","59.3","36.4","42.4","30.34","310","3.8","7.2","0.01","0.00"
"14:14:59","58.5","37.2","45.1","30.34","301","3.9","8.4","0.01","0.00"
"14:19:59","58.7","37.5","45.2","30.34","345","2.9","8.4","0.01","0.00"
"14:24:57","58.2","36","43.3","30.34","310","3.4","6","0.01","0.00"
"14:29:57","58.7","37.5","45","30.34","300","0.7","2.4","0.01","0.00"
"14:34:57","59.4","37.3","43.7","30.34","304","2.2","6","0.01","0.00"
"14:39:58","59","36.6","43.2","30.34","330","3","8.4","0.01","0.00"
"14:44:56","58.7","36.4","43.4","30.34","341","3.8","7.2","0.01","0.00"
"14:49:57","58.5","37","44.6","30.34","308","1.7","6","0.01","0.00"
"14:54:57","58.6","36.4","43.5","30.34","226","2.5","5.8","0.01","0.00"
"14:59:58","58.3","36.2","43.5","30.34","265","2.1","4.8","0.01","0.00"
"15:04:59","58.6","37","44.6","30.34","278","1.6","8.4","0.01","0.00"
"15:09:58","58.5","35.8","42.6","30.34","327","4","8.4","0.01","0.00"
"15:14:56","58.2","35.6","42.6","30.34","305","3.6","8.4","0.01","0.00"
"15:19:57","58","35.3","42.5","30.34","327","3.3","7.2","0.01","0.00"
"15:24:57","58","35.2","42.3","30.34","309","2.3","6","0.01","0.00"
"15:29:58","58.1","36.3","44","30.35","345","3.2","6","0.01","0.00"
"15:34:59","58","36.5","44.5","30.35","324","1.6","7.2","0.01","0.00"
"15:39:57","57.9","36","43.8","30.35","349","2.3","7.2","0.01","0.00"
"15:44:57","57.5","36","44.6","30.35","351","3.3","10.8","0.01","0.00"
"15:49:58","57","36.1","45.6","30.35","339","3.2","7.2","0.01","0.00"
"15:54:58","56.5","35.8","45.6","30.35","341","2.9","6","0.01","0.00"
"15:59:56","56.4","36.1","46.5","30.35","339","1.8","4.8","0.01","0.00"
"16:04:56","56.3","35.7","45.8","30.35","339","1.3","4.6","0.01","0.00"
"16:09:56","56.2","35.8","46.3","30.35","339","0.9","2.4","0.01","0.00"
"16:14:58","55.8","36","47.3","30.36","340","1.2","3.6","0.01","0.00"
"16:19:59","55.8","36.4","47.9","30.36","333","1.2","4.8","0.01","0.00"
"16:24:59","55.7","36.7","48.7","30.36","334","0.4","2.3","0.01","0.00"
"16:29:56","55.5","36.8","49.4","30.36","334","0.1","1.2","0.01","0.00"
"16:34:57","55.1","36.7","49.8","30.36","334","0","1.2","0.01","0.00"
"16:39:56","54.7","36.7","50.7","30.36","334","0","0","0.01","0.00"
"16:44:58","54.2","36.8","51.7","30.36","334","0.1","1.2","0.01","0.00"
"16:49:57","53.8","36.6","52","30.36","334","0","1.2","0.01","0.00"
"16:54:58","53.4","36.2","52","30.36","334","0","0","0.01","0.00"
"16:59:56","53","36.3","52.9","30.36","334","0","0","0.01","0.00"
"17:04:57","52.5","36.2","53.8","30.36","334","0","0","0.01","0.00"
"17:09:57","51.9","36.7","56","30.36","334","0","0","0.01","0.00"
"17:14:56","51.2","36.6","57.2","30.37","334","0","0","0.01","0.00"
"17:19:58","50.6","36.4","58.2","30.37","334","0","0","0.01","0.00"
"17:24:59","50","36.5","59.6","30.37","334","0","0","0.01","0.00"
"17:29:56","49.4","36.9","61.9","30.37","334","0","0","0.01","0.00"
"17:34:57","48.8","36.9","63.3","30.37","334","0","0","0.01","0.00"
"17:39:56","48.1","36.8","64.6","30.37","334","0","0","0.01","0.00"
"17:44:58","47.6","36.6","65.6","30.38","334","0","0","0.01","0.00"
"17:49:59","47.1","36.7","67.2","30.38","334","0","0","0.01","0.00"
"17:54:57","46.6","36.8","68.5","30.38","334","0","0","0.01","0.00"
"17:59:58","46.1","36.6","69.3","30.38","334","0","0","0.01","0.00"
"18:04:59","45.6","36.6","70.4","30.38","334","0","0","0.01","0.00"
"18:09:59","45.2","36.5","71.4","30.38","334","0","0","0.01","0.00"
"18:14:58","44.9","36.4","72","30.39","334","0","0","0.01","0.00"
"18:19:56","44.7","36.2","72","30.39","334","0","0","0.01","0.00"
"18:24:57","44.5","36.4","73","30.39","334","0","0","0.01","0.00"
"18:29:58","44.3","36.3","73.3","30.39","334","0","0","0.01","0.00"
"18:34:59","44.1","36.4","74.3","30.39","334","0","0","0.01","0.00"
"18:39:58","43.9","36.5","75","30.39","334","0","0","0.01","0.00"
"18:44:58","43.6","36.2","75","30.39","334","0","0","0.01","0.00"
"18:49:56","43.3","35.9","75","30.39","334","0","0","0.01","0.00"
"18:54:57","43","35.9","75.9","30.39","334","0","0","0.01","0.00"
"18:59:59","42.6","35.8","76.7","30.39","334","0","0","0.01","0.00"
"19:04:57","42.3","35.6","77.1","30.39","334","0","0","0.01","0.00"
"19:09:56","41.9","35.5","78","30.39","334","0","0","0.01","0.00"
"19:14:58","41.6","35.5","78.8","30.39","334","0","0","0.01","0.00"
"19:19:59","41.3","35.5","79.6","30.39","334","0","0","0.01","0.00"
"19:24:56","41","35.4","80","30.39","334","0","0","0.01","0.00"
"19:29:56","40.8","35.4","81","30.39","334","0","0","0.01","0.00"
"19:34:57","40.6","35.3","81.4","30.39","334","0","0","0.01","0.00"
"19:39:56","40.4","35.3","82","30.39","334","0","0","0.01","0.00"
"19:44:56","40.2","35.2","82.4","30.40","334","0","0","0.01","0.00"
"19:49:57","40.1","35.4","83","30.40","334","0","0","0.01","0.00"
"19:54:58","39.9","35.2","83","30.40","334","0","0","0.01","0.00"
"19:59:59","39.7","35","83","30.40","334","0","0","0.01","0.00"
"20:04:59","39.5","34.8","83","30.40","334","0","0","0.01","0.00"
"20:09:58","39.3","34.7","83.5","30.40","334","0","0","0.01","0.00"
"20:14:56","39.1","34.7","84","30.41","334","0","0","0.01","0.00"
"20:19:57","39","34.6","84","30.41","334","0","0","0.01","0.00"
"20:24:57","38.9","34.5","84","30.41","334","0","0","0.01","0.00"
"20:29:58","38.8","34.4","84","30.41","334","0","0","0.01","0.00"
"20:34:59","38.8","34.6","84.6","30.41","334","0","0","0.01","0.00"
"20:39:57","38.9","34.8","85","30.41","349","1.8","4.8","0.01","0.00"
"20:44:57","39","34.9","85","30.41","355","0","3.5","0.01","0.00"
"20:49:57","39.1","35","85","30.41","355","0","0","0.01","0.00"
"20:54:56","39.1","35","85","30.41","355","0","0","0.01","0.00"
"20:59:57","39","34.9","85","30.41","355","0","0","0.01","0.00"
"21:04:57","38.9","34.8","85","30.41","355","0","0","0.01","0.00"
"21:09:56","39","34.9","85","30.41","355","0","0","0.01","0.00"
"21:14:58","39","34.9","85","30.41","355","0","0","0.01","0.00"
"21:19:59","39","34.9","85","30.41","355","0","0","0.01","0.00"
"21:24:59","38.9","34.8","85","30.41","355","0.2","2.4","0.01","0.00"
"21:29:57","38.8","34.7","85","30.41","355","0","1.2","0.01","0.00"
"21:34:57","38.7","34.6","85","30.41","355","0.1","1.2","0.01","0.00"
"21:39:56","38.6","34.5","85","30.41","336","0.2","2.4","0.01","0.00"
"21:44:57","38.3","34.2","85","30.41","333","0.1","1.2","0.01","0.00"
"21:49:58","38.1","34.1","85.5","30.41","333","0","0","0.01","0.00"
"21:54:58","38","34.2","86","30.41","333","0","0","0.01","0.00"
"21:59:59","37.9","34.1","86","30.42","333","0","0","0.01","0.00"
"22:04:59","37.7","33.9","86","30.42","326","0.5","1.2","0.01","0.00"
"22:09:58","37.6","33.8","86","30.42","326","0","1.2","0.01","0.00"
"22:14:56","37.5","34","86.9","30.42","326","0","1.2","0.01","0.00"
"22:19:57","37.5","34","87","30.42","326","0","0","0.01","0.00"
"22:24:58","37.5","34","87","30.42","326","0","0","0.01","0.00"
"22:29:58","37.5","34","87","30.42","326","0","0","0.01","0.00"
"22:34:59","37.5","34","87","30.42","326","0","0","0.01","0.00"
"22:39:58","37.5","34","87","30.42","326","0","0","0.01","0.00"
"22:44:59","37.3","33.8","87","30.42","326","0","0","0.01","0.00"
"22:49:56","37.2","33.7","87","30.42","326","0","0","0.01","0.00"
"22:54:56","37.2","33.7","87","30.42","326","0","0","0.01","0.00"
"22:59:57","37.2","33.7","87","30.42","326","0","0","0.01","0.00"
"23:04:58","37.2","33.7","87","30.42","326","0","0","0.01","0.00"
"23:09:56","37.2","34","87.9","30.42","326","0","1.2","0.01","0.00"
"23:14:58","37.3","34.1","88","30.42","326","0","1.2","0.01","0.00"
"23:19:59","37.4","34","87.5","30.42","326","0","0","0.01","0.00"
"23:24:56","37.4","34.2","87.8","30.42","326","0","0","0.01","0.00"
"23:29:56","37.5","34.3","88","30.42","326","0.3","1.2","0.01","0.00"
"23:34:57","37.6","34.4","87.9","30.42","326","0","1.2","0.01","0.00"
"23:39:59","37.7","34.2","87","30.42","326","0","0","0.01","0.00"
